Weather History for KFEP - September, 2013

Change the Weather History Date:

Sunday, September 29, 2013

  Actual Average Record
Temperature  
Mean Temperature 60 °F -  
Max Temperature 71 °F 69 °F 84 °F (2002)
Min Temperature 48 °F 45 °F 28 °F (1984)
Degree Days  
Heating Degree Days 6    
Growing Degree Days 10 (Base 50)    
Moisture  
Dew Point 47 °F    
Average Humidity 73    
Maximum Humidity 95    
Minimum Humidity 28    
Precipitation  
Precipitation 0.01 in - - ()
Sea Level Pressure  
Sea Level Pressure 30.05 in    
Wind  
Wind Speed 3 mph (SSE)    
Max Wind Speed 8 mph    
Max Gust Speed -    
Visibility 7 miles    
Events Fog    
Averages and records for this station are not official NWS values.
T = Trace of Precipitation, MM = Missing Value Source: NWS Daily Summary

Daily Weather History Graph

Daily Weather History Graph

Search for Another Location

Airport or City:

Trip Planner

Search our weather history database for the weather conditions in past years. The results will help you decide how hot, cold, wet, or windy it might be!

Date:

Astronomy

Sep. 29, 2013 Rise Set
Actual Time 6:53 AM CDT 6:42 PM CDT
Civil Twilight 6:25 AM CDT 7:10 PM CDT
Nautical Twilight 5:52 AM CDT 7:43 PM CDT
Astronomical Twilight 5:19 AM CDT 8:16 PM CDT
Moon 1:29 AM CDT (9/29) 3:43 PM CDT (9/29)
Length of Visible Light 12h 45m
Length of Day
11h 49m
Waning Crescent, 27% of the Moon is Illuminated
Sep 29
Waning Crescent
Oct 4
New
Oct 11
First Quarter
Oct 18
Full
Oct 26
Last Quarter

Hourly Weather History & Observations

Time (CDT) Temp. Dew Point Humidity Pressure Visibility Wind Dir Wind Speed Gust Speed Precip Events Conditions
12:15 AM 54.9 °F 52.9 °F 93% 30.03 in 10.0 mi West 5.8 mph - N/A   Clear
12:35 AM 54.0 °F 52.2 °F 94% 30.03 in 10.0 mi WNW 5.8 mph - N/A   Clear
12:55 AM 54.0 °F 52.2 °F 94% 30.03 in 10.0 mi West 3.5 mph - N/A   Clear
1:15 AM 54.0 °F 52.2 °F 94% 30.04 in 10.0 mi West 3.5 mph - N/A   Clear
1:35 AM 54.0 °F 52.3 °F 94% 30.04 in 7.0 mi Calm Calm - N/A   Clear
1:55 AM 52.9 °F 51.4 °F 95% 30.04 in 0.8 mi Calm Calm - N/A   Mist
2:15 AM 52.7 °F 51.3 °F 95% 30.04 in 0.5 mi West 3.5 mph - N/A Fog Fog
2:35 AM 51.4 °F 50.0 °F 95% 30.04 in 0.2 mi Calm Calm - N/A Fog Fog
2:55 AM 51.4 °F 50.0 °F 95% 30.04 in 0.2 mi West 3.5 mph - N/A Fog Fog
3:15 AM 51.4 °F 50.0 °F 95% 30.04 in 0.2 mi WNW 3.5 mph - N/A Fog Fog
3:35 AM 51.4 °F 50.0 °F 95% 30.04 in 0.2 mi Calm Calm - N/A Fog Fog
3:55 AM 52.0 °F 50.5 °F 95% 30.05 in 0.2 mi Calm Calm - N/A Fog Fog
4:15 AM 54.0 °F 52.5 °F 95% 30.05 in 0.2 mi Calm Calm - N/A Fog Fog
4:35 AM 54.0 °F 52.7 °F 95% 30.05 in 0.2 mi Calm Calm - N/A Fog Fog
4:55 AM 54.0 °F 52.5 °F 95% 30.05 in 0.2 mi WNW 3.5 mph - N/A Fog Fog
5:15 AM 51.4 °F 50.0 °F 95% 30.05 in 0.2 mi Calm Calm - N/A Fog Fog
5:35 AM 51.4 °F 50.0 °F 95% 30.06 in 0.2 mi NW 3.5 mph - N/A Fog Fog
5:55 AM 51.4 °F 50.0 °F 95% 30.06 in 0.2 mi Calm Calm - N/A Fog Fog
6:15 AM 51.4 °F 50.0 °F 95% 30.07 in 0.2 mi Calm Calm - N/A Fog Fog
6:35 AM 51.4 °F 50.0 °F 95% 30.07 in 0.2 mi Calm Calm - N/A Fog Fog
6:55 AM 50.0 °F 48.6 °F 95% 30.08 in 0.2 mi Calm Calm - 0.01 in Fog Fog
7:15 AM 49.1 °F 47.5 °F 94% 30.08 in 0.2 mi Calm Calm - N/A Fog Fog
7:35 AM 49.1 °F 47.5 °F 94% 30.09 in 0.2 mi Calm Calm - N/A Fog Fog
7:55 AM 48.6 °F 46.9 °F 94% 30.09 in 0.2 mi Calm Calm - N/A Fog Fog
8:15 AM 49.1 °F 47.5 °F 94% 30.09 in 0.2 mi Calm Calm - N/A Fog Fog
8:35 AM 49.3 °F 47.7 °F 94% 30.09 in 0.2 mi Calm Calm - N/A Fog Fog
8:55 AM 51.4 °F 50.0 °F 95% 30.10 in 0.2 mi Calm Calm - N/A Fog Fog
9:15 AM 52.2 °F 50.7 °F 95% 30.11 in 0.5 mi Calm Calm - N/A Fog Fog
9:35 AM 54.0 °F 52.7 °F 95% 30.11 in 2.5 mi Calm Calm - N/A   Overcast
9:55 AM 54.0 °F 52.7 °F 95% 30.11 in 10.0 mi Calm Calm - N/A   Scattered Clouds
10:15 AM 54.0 °F 52.7 °F 95% 30.11 in 10.0 mi Calm Calm - N/A   Scattered Clouds
10:35 AM 58.5 °F 56.1 °F 92% 30.11 in 10.0 mi Calm Calm - N/A   Clear
10:55 AM 60.3 °F 52.7 °F 76% 30.11 in 10.0 mi NNW 3.5 mph - N/A   Clear
11:15 AM 61.7 °F 51.6 °F 69% 30.11 in 10.0 mi North 3.5 mph - N/A   Clear
11:35 AM 64.0 °F 50.7 °F 62% 30.11 in 10.0 mi Calm Calm - N/A   Clear
11:55 AM 64.0 °F 47.1 °F 54% 30.10 in 10.0 mi East 3.5 mph - N/A   Clear
12:15 PM 65.3 °F 48.0 °F 54% 30.10 in 10.0 mi NE 3.5 mph - N/A   Clear
12:35 PM 66.4 °F 45.5 °F 47% 30.09 in 10.0 mi East 5.8 mph - N/A   Clear
12:55 PM 66.9 °F 41.4 °F 39% 30.09 in 10.0 mi ENE 6.9 mph - N/A   Clear
1:15 PM 67.3 °F 42.3 °F 40% 30.08 in 10.0 mi Calm Calm - N/A   Clear
1:35 PM 67.6 °F 37.9 °F 34% 30.07 in 10.0 mi East 3.5 mph - N/A   Clear
1:55 PM 68.7 °F 38.5 °F 33% 30.06 in 10.0 mi East 3.5 mph - N/A   Clear
2:15 PM 68.4 °F 37.9 °F 33% 30.05 in 10.0 mi Calm Calm - N/A   Clear
2:35 PM 69.3 °F 37.0 °F 31% 30.05 in 10.0 mi Calm Calm - N/A   Clear
2:55 PM 70.0 °F 38.3 °F 31% 30.04 in 10.0 mi NE 8.1 mph - N/A   Clear
3:15 PM 71.4 °F 38.3 °F 30% 30.04 in 10.0 mi Calm Calm - N/A   Clear
3:35 PM 70.5 °F 37.9 °F 30% 30.03 in 10.0 mi NNE 3.5 mph - N/A   Clear
3:55 PM 71.6 °F 38.3 °F 30% 30.03 in 10.0 mi Calm Calm - N/A   Clear
4:15 PM 69.3 °F 34.5 °F 28% 30.03 in 10.0 mi Calm Calm - N/A   Clear
4:35 PM 71.4 °F 37.4 °F 29% 30.03 in 10.0 mi Calm Calm - N/A   Clear
4:55 PM 71.8 °F 39.0 °F 30% 30.03 in 10.0 mi East 3.5 mph - N/A   Clear
5:15 PM 69.3 °F 35.4 °F 29% 30.03 in 10.0 mi Calm Calm - N/A   Clear
5:35 PM 69.3 °F 34.9 °F 28% 30.03 in 10.0 mi Calm Calm - N/A   Clear
5:55 PM 69.3 °F 36.1 °F 30% 30.02 in 10.0 mi Calm Calm - N/A   Clear
6:15 PM 67.5 °F 37.6 °F 33% 30.02 in 10.0 mi Calm Calm - N/A   Clear
6:35 PM 64.0 °F 45.5 °F 51% 30.02 in 10.0 mi SE 3.5 mph - N/A   Clear
6:55 PM 59.2 °F 47.7 °F 66% 30.02 in 10.0 mi SSE 3.5 mph - N/A   Clear
7:15 PM 56.8 °F 48.6 °F 74% 30.02 in 10.0 mi SSE 3.5 mph - N/A   Clear
7:35 PM 54.7 °F 47.5 °F 77% 30.02 in 10.0 mi SSE 4.6 mph - N/A   Clear
7:55 PM 54.0 °F 48.4 °F 81% 30.03 in 10.0 mi South 4.6 mph - N/A   Clear
8:15 PM 54.0 °F 47.5 °F 79% 30.02 in 10.0 mi South 4.6 mph - N/A   Clear
8:35 PM 51.4 °F 46.6 °F 83% 30.02 in 10.0 mi South 5.8 mph - N/A   Clear
8:55 PM 54.0 °F 47.7 °F 79% 30.02 in 10.0 mi South 6.9 mph - N/A   Clear
9:15 PM 52.3 °F 47.1 °F 82% 30.02 in 10.0 mi South 5.8 mph - N/A   Clear
9:35 PM 51.4 °F 46.4 °F 83% 30.02 in 10.0 mi SSE 4.6 mph - N/A   Clear
9:55 PM 51.8 °F 45.0 °F 77% 30.02 in 10.0 mi SSE 6.9 mph - N/A   Clear
10:15 PM 51.4 °F 45.5 °F 80% 30.03 in 10.0 mi SSE 6.9 mph - N/A   Clear
10:35 PM 51.4 °F 45.5 °F 80% 30.03 in 10.0 mi South 5.8 mph - N/A   Clear
10:55 PM 51.4 °F 45.5 °F 80% 30.03 in 10.0 mi SSE 6.9 mph - N/A   Clear
11:15 PM 52.0 °F 45.7 °F 79% 30.03 in 10.0 mi South 5.8 mph - N/A   Clear
11:35 PM 51.4 °F 45.9 °F 81% 30.03 in 10.0 mi South 5.8 mph - N/A   Clear
11:55 PM 51.4 °F 46.4 °F 83% 30.03 in 10.0 mi South 4.6 mph - N/A   Clear